Home > Weather > Rawalpindi > Past weeks

Flag for Pakistan Past Weather in Rawalpindi, Pakistan — Yesterday and Last 2 Weeks

Now
99 °F

Haze.


Feels Like: 98 °F
Forecast: 73 / 100 °F
Wind: 18 mph from Southeast

Location: Islamabad Airport

Current Time: May 29, 2016 at 6:44:20 PM

Latest Report: May 29, 2016 at 6:00 PM


Visibility: 3 mi

Pressure: 29.53 "Hg (27.94 "Hg at 501m altitude)

Humidity: 25%

Dew Point: 57 °F

Location of RawalpindiLocation

Past Weather in Rawalpindi — Graph

°F

Rawalpindi Temperature Yesterday

Maximum temperature yesterday: 106 °F (at 4:00 PM)
Minimum temperature yesterday: 81 °F (at 5:00 AM)
Average temperature yesterday: 92 °F

High & Low Weather Summary for the Past Weeks

 TemperatureHumidityPressure
High109 °F (May 21, 3:00 PM)74% (May 24, 2:00 PM)29.83 "Hg (May 24, 2:00 PM)
Low70 °F (May 24, 3:00 AM)13% (May 18, 5:00 PM)29.45 "Hg (May 21, 5:30 PM)
Average89 °F39%29.61 "Hg
* Reported May 14 5:00 PM — May 29 5:30 PM, Rawalpindi, Weather by CustomWeather, © 2016

Note: Actual official high and low records may vary slightly from our data, if they occured in-between our weather recording intervals... More about our weather records

Advertising

Rawalpindi Weather History for the Previous 24 Hours

Scroll right to see more
 ConditionsComfort  
Time TempWeatherWind HumidityBarometerVisibility
5:30 PM
Sun, May 29
100 °FHaze.18 mph22%29.53 "Hg3 mi
4:30 PM100 °FScattered clouds.18 mph25%29.56 "Hg3 mi
4:00 PM100 °FScattered clouds.18 mph25%29.56 "Hg3 mi
3:30 PM100 °FScattered clouds.18 mph25%29.56 "Hg3 mi
3:00 PM100 °FScattered clouds.18 mph25%29.56 "Hg3 mi
1:30 PM99 °FScattered clouds.14 mph29%29.59 "Hg3 mi
1:00 PM99 °FScattered clouds.14 mph29%29.59 "Hg3 mi
12:30 PM99 °FHaze.14 mph29%29.62 "Hg3 mi
12:00 PM99 °FHaze.14 mph29%29.62 "Hg3 mi
11:30 AM97 °FHaze.14 mph32%29.62 "Hg3 mi
11:00 AM97 °FHaze.14 mph32%29.62 "Hg3 mi
10:30 AM97 °FHaze.12 mph32%29.62 "Hg3 mi
10:00 AM97 °FHaze.12 mph32%29.62 "Hg3 mi
9:30 AM91 °FHaze.12 mph36%29.62 "Hg3 mi
9:00 AM91 °FHaze.12 mph36%29.62 "Hg3 mi
8:30 AM88 °FHaze.9 mph38%29.59 "Hg3 mi
8:00 AM88 °FHaze.9 mph38%29.59 "Hg3 mi
7:30 AM82 °FClear.9 mph45%29.59 "Hg3 mi
7:00 AM82 °FClear.9 mph45%29.59 "Hg3 mi
6:30 AM81 °FClear.9 mph45%29.59 "Hg3 mi
6:00 AM81 °FClear.9 mph45%29.59 "Hg3 mi
5:30 AM79 °FClear.9 mph45%29.56 "Hg3 mi
5:00 AM79 °FClear.9 mph45%29.56 "Hg4 mi
4:30 AM81 °FClear.12 mph45%29.56 "Hg4 mi
4:00 AM81 °FClear.12 mph45%29.56 "Hg4 mi
3:30 AM82 °FClear.12 mph42%29.56 "Hg4 mi
3:00 AM82 °FClear.12 mph42%29.56 "Hg4 mi
2:30 AM82 °FClear.14 mph42%29.56 "Hg4 mi
2:00 AM82 °FClear.14 mph42%29.56 "Hg4 mi
1:30 AM84 °FPassing clouds.16 mph40%29.56 "Hg5 mi
1:00 AM84 °FPassing clouds.16 mph40%29.56 "Hg5 mi
12:30 AM86 °FPassing clouds.16 mph38%29.56 "Hg5 mi
12:00 AM86 °FPassing clouds.16 mph38%29.56 "Hg5 mi
11:30 PM
Sat, May 28
88 °FPassing clouds.18 mph38%29.56 "Hg5 mi
11:00 PM88 °FPassing clouds.18 mph38%29.56 "Hg5 mi
10:30 PM90 °FPassing clouds.14 mph36%29.53 "HgN/A
10:00 PM90 °FPassing clouds.12 mph36%29.53 "HgN/A
9:30 PM93 °FPassing clouds.12 mph36%29.53 "HgN/A
9:00 PM93 °FPassing clouds.12 mph36%29.53 "HgN/A
8:30 PM97 °FPassing clouds.12 mph28%29.50 "HgN/A
8:00 PM97 °FPassing clouds.16 mph28%29.50 "HgN/A
6:00 PM102 °FPassing clouds.18 mph26%29.50 "Hg5 mi
Weather by CustomWeather, © 2016

See weather overviewHow to use our weather pages